Weather History for Ouarzazate, Morocco

Change the Weather History Date:

Thursday, May 9, 2013

  Actual Average Record
Temperature  
Mean Temperature 80 °F -  
Max Temperature 97 °F 87 °F - ()
Min Temperature 63 °F 59 °F - ()
Cooling Degree Days 15    
Growing Degree Days 30 (Base 50)    
Moisture  
Dew Point 23 °F    
Average Humidity 11    
Maximum Humidity 24    
Minimum Humidity 4    
Precipitation  
Precipitation 0.00 in 0.01 in - ()
Sea Level Pressure  
Sea Level Pressure 30.13 in    
Wind  
Wind Speed 5 mph ()    
Max Wind Speed 20 mph    
Max Gust Speed -    
Visibility 10.1 miles    
Events      
T = Trace of Precipitation, MM = Missing Value Source: Averaged Metar Reports

Daily Weather History Graph

Daily Weather History Graph

Search for Another Location

Airport:

Trip Planner

Search our weather history database for the weather conditions in past years. The results will help you decide how hot, cold, wet, or windy it might be!

Date:

Astronomy

May. 09, 2013 Rise Set
Actual Time 6:36 AM WEST 8:11 PM WEST
Civil Twilight 6:10 AM WEST 8:38 PM WEST
Nautical Twilight 5:39 AM WEST 9:09 PM WEST
Astronomical Twilight 5:06 AM WEST 9:42 PM WEST
Moon 6:09 AM WEST (5/9) 7:55 PM WEST (5/9)
Length of Visible Light 14h 27m
Length of Day
13h 35m
Waning Crescent, 0% of the Moon is Illuminated
May 9
Waning Crescent
May 10
New
May 18
First Quarter
May 25
Full
May 31
Last Quarter

Hourly Weather History & Observations

Time (WEST) Temp. Dew Point Humidity Pressure Visibility Wind Dir Wind Speed Gust Speed Precip Events Conditions
12:00 AM 78.8 °F 28.4 °F 16% 30.15 in - WSW 13.8 mph - N/A   Clear
1:00 AM 77 °F 27 °F 8%  in 12 mi WSW 8.1 mph - -   Clear
1:00 AM 77.0 °F 26.6 °F 16% 30.15 in - WSW 8.1 mph - N/A   Clear
2:00 AM 77.0 °F 26.6 °F 16% 30.15 in - WSW 5.8 mph - N/A   Clear
3:00 AM 77.0 °F 24.8 °F 14% 30.15 in - WSW 6.9 mph - N/A   Clear
4:00 AM 73 °F 24 °F 8%  in 12 mi West 3.5 mph - -  
4:00 AM 73.4 °F 24.8 °F 16% 30.15 in - West 3.5 mph - N/A   Clear
5:00 AM 68.0 °F 26.6 °F 21% 30.15 in - Calm Calm - N/A   Clear
6:00 AM 66.2 °F 26.6 °F 23% 30.15 in - Variable 1.2 mph - N/A   Clear
7:00 AM 64 °F 27 °F 14%  in 12 mi West 3.5 mph - -  
7:00 AM 64.4 °F 26.6 °F 24% 30.15 in - Variable 3.5 mph - N/A   Clear
8:00 AM 66.2 °F 26.6 °F 23% 30.15 in - Calm Calm - N/A   Clear
9:00 AM 73.4 °F 28.4 °F 19% 30.18 in - Calm Calm - N/A   Clear
10:00 AM 78 °F 27 °F 7%  in 12 mi Calm Calm - -   Clear
10:00 AM 80.6 °F 26.6 °F 14% 30.18 in - Calm Calm - N/A   Clear
11:00 AM 80.6 °F 26.6 °F 14% 30.18 in - Variable 2.3 mph - N/A   Clear
12:00 PM 84.2 °F 26.6 °F 12% 30.18 in - Variable 1.2 mph - N/A   Clear
1:00 PM 89 °F 26 °F 4%  in 12 mi SW 1.2 mph - -   Clear
1:00 PM 89.6 °F 24.8 °F 10% 30.15 in - Variable 1.2 mph - N/A   Clear
2:00 PM 93.2 °F 17.6 °F 6% 30.12 in - Variable 2.3 mph - N/A   Clear
3:00 PM 95.0 °F 17.6 °F 6% 30.09 in 6.2 mi Variable 2.3 mph - N/A   Scattered Clouds
4:00 PM 97 °F 15 °F 4%  in 12 mi NNW 2.3 mph - -   Scattered Clouds
4:00 PM 96.8 °F 15.8 °F 5% 30.06 in 6.2 mi Variable 1.2 mph - N/A   Scattered Clouds
5:00 PM 96.8 °F 15.8 °F 5% 30.06 in 6.2 mi SSE 9.2 mph - N/A   Scattered Clouds
6:00 PM 96.8 °F 19.4 °F 6% 30.06 in 6.2 mi SSE 8.1 mph - N/A   Scattered Clouds
7:00 PM 96 °F 14 °F 4%  in 12 mi South 9.2 mph - -   Clear
7:00 PM 95.0 °F 17.6 °F 6% 30.06 in - South 9.2 mph - N/A   Clear
8:00 PM 91.4 °F 19.4 °F 7% 30.06 in - WNW 19.6 mph - N/A   Clear
9:00 PM 86.0 °F 21.2 °F 9% 30.09 in - WNW 13.8 mph - N/A   Clear
10:00 PM 83 °F 21 °F 4%  in 12 mi WNW 15.0 mph - -   Clear
10:00 PM 82.4 °F 21.2 °F 10% 30.12 in - WNW 15.0 mph - N/A   Clear
11:00 PM 82.4 °F 19.4 °F 10% 30.15 in - WSW 10.4 mph - N/A   Clear